Preview of NWS' New Version of Forecast
This preview is not operational and should not be used for support decisions.

Regional Weather Roundup (RWR)

Issued by National Weather Service (NWS)

                            
000
ASUS43 KTOP 190808
RWRKS 

WEATHER ROUNDUP FOR KANSAS
NATIONAL WEATHER SERVICE GOODLAND KS
200 AM CST TUE FEB 19 2019

NOTE:  "FAIR" INDICATES FEW OR NO CLOUDS BELOW 12,000 FEET WITH NO
SIGNIFICANT WEATHER AND/OR OBSTRUCTIONS TO VISIBILITY.

KSZ001>006-013>018-027>032-041>047-190900-
NORTHWEST KANSAS
  
CITY           SKY/WX    TMP DP  RH WIND       PRES   REMARKS
GOODLAND       CLOUDY    14  12  92 SE20      30.20F WCI  -3          
HAYS           CLOUDY    13  11  92 NE8       30.40F                  
HILL CITY      CLOUDY    11   7  84 NE6       30.39F                  
RUSSELL        CLOUDY    13  12  96 NE7       30.40F                  
$$

KSZ061>065-074>080-084>089-190900-
SOUTHWEST KANSAS
  
CITY           SKY/WX    TMP DP  RH WIND       PRES   REMARKS
DODGE CITY     CLOUDY    17  12  80 NE9       30.31F                  
ELKHART        PTCLDY    13  12  95 SE7       30.22R                  
GARDEN CITY    CLOUDY    14  12  92 E9        30.28S                  
GREAT BEND     CLOUDY    18  14  84 NE10      30.39F WCI   6          
LIBERAL        CLOUDY    16  11  80 E6        30.28S                  
PRATT          CLOUDY    21  17  83 NE9       30.37S                  
$$

KSZ066>073-081>083-090>101-190900-
SOUTHEAST KANSAS
  
CITY           SKY/WX    TMP DP  RH WIND       PRES   REMARKS
CHANUTE        CLOUDY    26  18  71 E8        30.46S                  
COFFEYVILLE    CLOUDY    27  20  75 E12       30.45F WCI  17          
HUTCHINSON     CLOUDY    22  19  89 NE7       30.41S                  
MEDICINE LODGE   N/A     23  17  78 NE7       30.38F                  
NEWTON         CLOUDY    20  17  88 E9        30.42F                  
PARSONS        CLOUDY    26  20  77 VRB6      30.45F                  
WICHITA INTL   CLOUDY    25  17  72 E14       30.41S WCI  13          
WICHITA JABRA  CLOUDY    23  16  74 NE10      30.41F WCI  12          
WICHITA MCCONL CLOUDY    24  16  71 E9        30.40F                  
WINFIELD       CLOUDY    25  16  68 E7        30.42R                  
$$

KSZ007>012-019>026-033>040-048>060-102>105-190900-
NORTHEAST KANSAS
  
CITY           SKY/WX    TMP DP  RH WIND       PRES   REMARKS
CONCORDIA      CLOUDY    11   8  88 CALM      30.47F                  
EMPORIA        CLOUDY    21  17  84 E10       30.46F WCI  10          
LAWRENCE       CLOUDY    20  14  77 NE5       30.53F                  
MANHATTAN      CLOUDY    17  13  84 NE8       30.50F                  
MARYSVILLE     CLOUDY    12   9  85 CALM      30.51R                  
OLATHE IND     CLOUDY    20  16  84 E6        30.51F                  
OLATHE EXE     CLOUDY    20  15  81 E7        30.51S                  
SALINA         CLOUDY    19  15  84 E8        30.48R                  
TOPEKA BILLARD CLOUDY    18  13  80 NE5       30.52F                  
TOPEKA FORBES  CLOUDY    18  13  80 NE5       30.50F                  
$$